Theta_e
312 312 312 313 313 313 313 313 314 313 313 314 314 314 315 315 313 306 302 308 313 321 320 309 307 310 308 305 304 301 295 291 292 295 298 304 304 304 306 302 307 309 309 320 328
312 312 312 312 313 313 313 314 314 313 313 313 313 314 315 314 307 302 312 323 324 321 306 303 301 306 303 302 301 298 292 294 299 300 299 302 298 303 304 303 305 307 322 327 325
310 311 311 311 311 312 313 313 314 312 313 313 314 314 314 312 301 305 322 324 324 325 314 308 303 302 301 303 300 298 294 298 301 303 304 300 299 302 300 298 305 306 316 320 320
309 310 311 312 312 312 313 313 312 311 312 312 312 313 313 307 290 302 321 324 325 322 316 309 302 295 295 298 302 297 300 301 301 304 303 301 301 301 302 303 308 306 310 319 318
310 310 310 310 310 311 312 312 312 311 311 311 312 313 307 297 298 309 325 325 321 315 309 307 301 298 295 298 300 299 300 302 303 303 303 303 300 300 301 304 305 308 316 314 316
310 310 309 309 310 310 311 311 310 311 311 311 312 312 303 291 304 306 305 306 304 301 301 306 305 303 301 300 299 302 302 301 302 302 301 301 301 298 302 305 305 306 314 315 316
309 309 308 308 309 309 310 310 309 310 310 310 312 309 300 296 303 305 305 304 306 304 299 301 301 298 302 299 304 302 298 300 300 301 299 302 297 298 301 304 303 303 307 315 315
307 308 308 309 309 310 309 309 308 309 310 310 312 306 296 308 307 306 305 304 307 308 305 303 301 298 300 303 302 298 298 292 298 300 301 298 293 299 302 300 300 301 303 314 316
308 308 307 308 309 308 308 308 308 309 310 312 306 303 297 312 305 307 307 303 305 306 304 306 301 295 300 295 292 293 288 291 295 301 300 298 295 301 303 303 302 300 304 311 314
307 307 308 308 308 308 307 307 306 308 309 310 308 300 305 301 304 304 305 310 306 303 301 299 294 289 293 291 285 289 290 291 292 298 299 296 296 300 303 303 303 302 303 308 313
306 306 308 308 308 307 304 297 296 297 298 297 300 300 303 305 304 299 302 305 305 301 293 296 287 285 288 294 295 295 294 292 296 300 299 298 297 299 301 300 301 301 303 306 313
307 306 307 308 308 307 301 295 300 298 291 300 300 299 301 301 295 299 301 297 298 293 297 293 286 292 295 297 296 295 293 291 296 300 299 298 299 298 299 299 301 304 303 305 312
307 306 306 307 307 301 297 300 306 304 290 293 298 298 299 302 296 297 299 295 295 292 294 291 295 299 296 292 292 291 290 293 293 298 299 297 295 295 300 302 303 304 306 307 314
306 306 306 306 299 297 295 303 306 305 286 289 295 298 302 302 296 302 302 295 298 293 294 294 298 296 295 292 293 287 295 296 296 294 288 298 287 293 297 300 302 302 304 306 314
306 306 305 305 296 293 298 304 305 301 274 296 296 306 303 297 298 297 301 296 293 294 294 290 294 293 292 293 294 291 298 297 297 293 292 293 289 292 297 297 300 302 302 304 314
305 305 305 300 296 297 301 301 300 284 275 292 297 295 295 297 298 298 296 298 298 294 295 293 296 295 294 297 297 299 295 296 295 293 285 291 290 289 293 297 301 303 304 304 314
304 304 301 301 290 299 300 297 283 277 291 289 292 296 295 293 295 295 291 290 287 284 284 289 291 295 297 292 296 295 292 285 284 284 283 294 291 292 297 301 302 301 302 305 314
304 303 300 299 298 299 297 288 276 285 284 292 293 292 288 291 290 292 289 286 291 289 285 282 281 292 296 293 291 293 291 287 281 281 285 294 287 292 301 304 304 303 304 308 313
302 296 294 297 299 299 290 277 279 283 289 289 290 286 287 290 289 291 290 288 291 290 284 284 285 295 296 298 296 292 288 294 289 290 285 292 293 298 301 302 302 303 304 304 311
295 293 292 298 299 294 284 279 283 289 291 289 284 288 283 285 289 290 291 294 293 296 295 290 283 293 296 298 298 295 297 287 287 281 281 288 291 289 296 298 300 300 301 304 308
294 288 292 298 298 288 279 281 286 290 291 288 286 286 287 286 287 287 290 292 295 293 294 293 288 288 294 292 290 292 290 291 291 289 284 283 289 300 301 302 300 302 304 307 307
291 282 293 300 284 286 280 284 289 288 291 290 289 288 286 287 286 286 288 292 295 294 290 293 290 284 287 295 298 294 293 293 287 286 289 287 288 304 303 304 303 304 305 306 310
287 286 293 296 280 281 285 285 287 286 288 288 287 289 290 286 283 287 291 295 296 293 289 290 288 282 284 289 294 291 294 295 293 292 287 285 289 304 304 303 303 304 304 306 308
286 280 284 286 286 285 282 283 284 290 288 289 288 289 288 286 288 285 289 294 295 294 295 294 287 284 281 286 289 288 292 295 292 288 288 290 294 300 301 301 302 304 304 306 308
285 283 286 274 282 284 286 286 284 284 290 291 287 287 286 283 285 285 288 292 294 295 293 291 283 287 289 290 291 290 290 292 292 292 289 293 295 298 301 302 302 305 306 306 307
284 284 287 285 286 285 285 284 283 286 287 287 286 288 288 283 285 284 288 288 288 292 291 291 283 286 285 290 289 288 292 292 295 294 294 295 295 301 304 304 303 304 304 305 306
291 290 287 284 284 283 284 285 285 288 288 290 290 288 287 289 292 292 292 292 292 290 289 289 285 282 280 288 287 284 291 293 295 297 296 292 297 302 302 302 302 302 304 304 306
Wind_Speed
11 13 14 14 13 15 17 17 17 19 20 21 22 22 24 24 25 8 10 10 8 8 3 5 5 7 5 5 8 4 10 13 17 15 21 15 3 3 6 4 5 5 9 10 14
12 12 14 16 15 15 15 16 17 20 20 21 21 22 22 24 14 14 13 7 8 7 3 7 8 7 5 5 6 9 10 15 12 17 18 12 5 7 4 6 5 1 10 14 14
13 14 14 15 16 16 16 16 17 20 20 20 20 20 21 21 8 5 7 10 9 8 5 7 7 9 9 9 9 10 19 15 16 21 17 11 12 6 3 4 4 7 10 13 8
14 14 16 17 16 17 17 17 19 20 22 21 20 21 23 4 5 2 11 9 7 5 4 3 5 5 5 12 15 17 20 20 20 23 22 17 7 9 4 6 3 4 7 12 8
12 14 16 18 18 18 17 18 20 21 22 21 19 17 10 5 13 10 6 7 8 4 6 8 7 7 9 9 11 17 18 20 21 21 23 17 15 10 9 8 6 5 9 9 9
12 14 16 18 20 20 19 20 21 22 21 20 18 12 5 11 8 8 11 6 9 3 6 6 7 10 13 15 16 15 18 20 19 20 15 18 18 4 11 7 8 9 11 10 10
13 13 16 18 20 21 22 23 24 24 22 21 16 7 8 23 6 17 18 7 9 7 5 8 5 5 9 11 14 18 17 17 19 17 12 16 15 15 11 10 12 12 10 12 11
16 14 14 17 18 20 23 25 26 26 23 20 9 4 11 11 9 13 12 11 7 9 7 10 8 6 4 7 11 10 14 15 13 11 15 7 17 12 12 9 13 12 9 13 11
15 14 15 17 18 21 24 28 31 30 19 11 4 5 10 11 6 14 15 5 6 6 6 11 6 5 4 4 5 6 9 12 17 14 16 18 20 17 13 13 9 5 10 11 11
14 14 16 17 18 22 25 31 30 16 9 9 6 5 9 8 3 7 6 4 3 4 4 2 3 4 2 2 8 5 8 9 14 22 16 21 23 19 12 9 11 9 9 9 13
14 16 15 17 20 22 18 9 7 4 5 8 6 10 16 10 15 4 11 5 5 3 4 6 5 8 8 10 14 13 15 19 19 17 16 21 21 19 10 7 9 10 10 10 15
12 14 15 16 20 22 11 3 7 6 12 15 23 24 22 14 14 12 7 5 3 6 6 4 6 7 11 15 14 13 19 23 23 19 16 14 26 10 9 8 11 15 11 11 11
12 14 14 15 19 11 7 12 9 7 5 18 12 11 11 13 13 13 9 6 6 5 7 10 7 5 12 18 15 14 17 19 19 20 24 18 17 5 7 6 9 12 16 10 20
13 12 13 16 9 8 7 19 14 6 5 10 7 7 10 4 6 10 9 9 3 0 3 3 4 10 15 17 13 11 11 24 18 12 10 19 13 8 10 16 15 13 13 12 18
13 11 10 8 7 5 8 16 11 4 5 9 8 10 10 8 4 5 5 5 8 7 6 7 5 5 14 17 16 9 15 22 7 9 14 22 13 8 9 10 14 16 13 13 21
13 12 9 8 3 8 11 15 4 1 10 9 10 11 10 11 5 5 5 3 1 5 9 12 7 5 2 11 7 8 15 6 7 4 9 18 16 8 10 9 9 17 16 14 20
13 11 7 7 5 10 12 7 3 7 11 10 8 16 17 7 13 10 10 7 6 4 5 6 14 12 7 7 8 9 9 1 3 5 7 9 15 14 9 17 13 4 12 12 19
12 11 6 6 7 8 7 3 10 9 14 9 6 5 3 4 11 8 12 6 7 5 2 2 6 6 11 11 5 13 7 4 5 4 3 13 8 14 13 19 10 7 10 15 19
8 6 6 8 9 4 2 7 6 8 7 13 11 6 1 11 10 5 10 4 5 12 7 3 3 3 5 9 15 6 9 6 9 5 4 5 6 12 14 19 6 8 9 9 16
0 4 8 10 8 3 5 15 13 12 17 17 8 5 3 7 4 3 4 4 4 8 3 0 5 5 1 11 10 9 4 3 4 3 4 7 7 7 6 8 8 6 6 6 11
2 4 6 11 5 5 11 12 12 21 20 8 12 10 9 10 9 6 6 2 1 5 6 5 3 1 3 7 6 8 5 6 3 5 3 4 4 5 5 6 9 9 8 8 10
3 5 6 5 7 4 15 8 9 24 25 18 12 8 8 10 9 8 4 5 5 4 6 1 4 6 11 11 15 13 11 11 4 4 5 4 8 15 4 8 9 9 8 7 7
3 4 7 4 8 13 8 15 21 20 20 12 10 9 8 7 5 6 7 7 7 4 4 3 3 5 6 5 9 4 12 15 9 4 7 2 4 11 5 7 10 13 10 8 7
1 4 4 3 1 7 13 16 18 18 23 19 17 14 11 9 6 5 2 5 4 4 6 2 4 6 6 11 3 5 8 16 17 4 4 11 5 6 16 14 17 13 14 16 15
3 4 3 3 5 12 10 1 9 18 17 16 16 12 12 8 7 5 5 9 5 10 5 3 5 6 11 14 11 12 15 15 22 17 6 6 7 6 7 18 11 12 15 17 17
3 2 4 4 7 5 9 7 15 15 9 9 11 8 7 8 7 9 1 5 3 3 4 5 4 3 8 9 7 16 17 15 17 20 17 18 18 2 5 5 6 12 15 16 15
2 5 3 4 5 6 4 4 10 10 9 8 4 10 6 9 5 3 2 4 5 5 5 3 2 3 4 7 12 9 7 12 10 9 14 10 7 5 7 7 8 9 12 13 13
Wind_Direction
346 341 336 334 335 332 333 334 331 328 325 324 324 327 326 324 321 307 260 227 184 218 253 255 260 226 231 249 232 264 247 244 249 256 264 290 234 211 188 166 156 183 195 151 147
345 342 337 332 333 331 331 330 325 321 320 321 322 325 323 327 313 278 234 187 211 191 218 238 254 223 219 231 233 219 247 237 250 263 270 286 303 219 169 219 202 291 92 133 146
340 335 332 330 331 329 328 326 318 316 315 317 320 324 322 328 302 233 192 191 204 183 233 253 258 259 218 224 245 244 245 258 261 266 271 298 302 280 213 233 183 136 178 156 159
341 337 337 338 331 332 326 319 313 312 312 315 320 325 320 298 274 98 194 210 201 204 221 213 239 248 232 226 226 242 246 248 257 265 271 275 273 291 262 231 212 214 161 164 161
339 339 336 332 331 325 318 313 308 307 306 310 315 323 328 270 252 265 222 212 208 177 217 218 224 236 247 249 241 245 252 252 254 253 260 270 272 248 271 274 308 332 126 152 155
331 330 335 330 324 321 317 309 305 302 302 305 309 315 251 260 258 284 340 317 274 250 273 243 233 231 271 258 243 252 253 254 261 262 257 258 264 259 260 241 256 254 175 179 170
326 328 332 329 325 320 314 307 301 298 297 301 302 279 251 249 292 320 315 288 281 288 290 295 323 351 325 305 261 263 264 273 267 265 268 252 265 260 251 237 233 228 190 178 177
326 324 325 321 320 315 309 303 299 293 291 289 289 245 255 258 248 263 273 264 275 247 247 273 272 267 240 289 293 289 268 260 268 265 273 224 256 245 246 232 242 235 197 176 171
326 326 323 321 318 313 309 306 296 287 280 255 217 200 260 290 207 241 234 245 266 287 230 253 325 230 316 299 294 247 249 273 275 256 259 258 263 249 235 241 242 205 163 175 163
325 324 324 321 318 312 315 308 289 290 257 206 227 224 254 239 103 341 308 158 316 266 292 103 285 231 175 194 230 265 275 269 259 260 262 255 256 255 235 211 206 198 199 178 167
318 322 327 325 318 317 327 331 7 358 21 260 239 233 295 306 332 292 290 208 178 280 248 226 210 235 222 236 253 278 282 273 270 268 282 278 251 239 215 218 213 213 204 176 176
315 323 326 322 316 314 309 282 344 272 299 264 257 262 265 275 285 276 251 258 190 229 246 241 243 257 276 239 254 274 265 263 280 286 282 275 272 228 211 216 217 204 203 183 161
314 323 327 320 313 315 299 278 308 61 289 291 239 228 225 211 232 247 185 214 222 259 248 238 264 261 274 256 250 258 274 261 268 295 301 282 279 242 263 255 259 207 195 178 162
313 320 325 326 308 328 286 345 343 78 305 266 213 216 164 177 245 222 192 167 124 129 35 308 305 274 266 254 238 258 303 290 278 289 283 312 289 282 249 249 246 244 192 180 163
303 300 309 322 292 310 316 329 330 55 318 178 156 143 163 193 144 182 160 177 158 157 107 252 235 310 242 249 233 257 293 302 348 338 317 287 278 260 265 281 242 232 184 165 162
296 286 306 302 245 254 312 320 351 201 245 216 145 180 179 217 226 128 153 101 76 155 203 239 267 166 241 273 235 289 287 295 355 313 257 270 266 258 254 249 299 216 183 168 159
285 279 289 276 264 320 320 318 221 233 285 178 176 173 196 200 221 154 165 154 149 115 240 269 245 231 181 261 236 241 280 232 226 223 244 253 254 245 259 250 246 159 157 156 154
311 297 260 254 259 273 304 248 224 226 245 309 132 146 202 301 284 177 151 162 218 177 337 270 322 166 179 202 178 218 196 196 183 232 225 215 243 237 223 248 238 135 147 146 155
347 291 253 246 246 242 237 231 217 226 303 337 318 231 103 262 231 127 172 148 165 181 180 307 240 58 193 205 200 195 208 274 312 323 268 268 210 277 283 228 170 129 116 156 155
206 283 259 240 210 174 223 234 243 255 319 340 309 7 334 319 352 241 80 12 82 25 341 57 301 302 135 194 234 260 20 196 209 252 242 279 259 213 206 140 151 147 123 157 166
261 266 246 205 153 190 223 226 257 270 280 294 334 320 318 334 349 327 93 33 57 86 349 18 210 330 112 190 197 202 209 200 250 263 274 297 271 241 290 255 124 122 104 96 130
230 241 252 130 189 198 236 234 246 274 297 301 299 288 305 329 317 319 58 96 174 143 137 95 275 252 245 202 216 197 233 210 197 191 252 177 282 300 322 13 111 123 120 106 124
256 265 263 138 211 219 244 232 247 269 276 287 282 306 297 278 292 316 41 118 142 104 138 187 245 289 302 219 199 215 234 227 228 278 231 278 253 273 251 209 58 64 55 51 48
228 277 256 116 189 240 221 239 240 235 254 264 280 299 286 283 246 269 313 105 110 95 114 320 236 236 275 312 234 229 287 215 209 222 258 230 160 351 324 35 24 38 39 55 44
203 252 257 257 213 235 243 263 270 254 245 238 255 252 269 283 286 292 296 145 169 139 172 208 261 268 284 293 296 306 281 282 216 214 244 289 244 93 300 30 20 56 59 52 45
210 210 342 296 294 311 245 242 244 248 276 290 281 285 317 268 268 300 4 45 108 200 213 201 270 305 290 262 356 312 282 258 235 215 234 260 297 317 7 334 20 55 65 59 46
188 285 298 299 327 323 303 300 288 272 251 201 311 322 314 324 356 324 229 226 183 175 193 244 253 356 274 348 331 267 257 246 183 185 220 217 219 171 133 121 60 49 60 68 66